DAL2447 KMEM-KDTW

Flight info

Callsign DAL2447
Flight time N/A
Altitude 41000
Route CRSON7 HUMMS TINGS PXV WWODD HANBL3
Aircraft A359/H-SDE2E3GHIJ3J4J5LM1ORWXY/LB1D1

Departure

Time 2026-05-05 14:20
Airport Memphis International Airport (KMEM)

Arrival

Time N/A
Airport Detroit Metropolitan Wayne County Airport (KDTW)
Time Latitude Longitude Altitude Speed Heading
2026-05-05 14:05 35.04530 -89.98425 304 ft 0 kts 90°
2026-05-05 14:13 35.04530 -89.98436 306 ft 3 kts 90°
2026-05-05 14:13 35.04530 -89.98459 304 ft 3 kts 72°
2026-05-05 14:13 35.04520 -89.98480 303 ft 3 kts 30°
2026-05-05 14:13 35.04507 -89.98487 306 ft 0 kts
2026-05-05 14:16 35.04534 -89.98490 305 ft 13 kts 355°
2026-05-05 14:16 35.04662 -89.98504 307 ft 6 kts
2026-05-05 14:17 35.04693 -89.98504 307 ft 4 kts 358°
2026-05-05 14:17 35.04778 -89.98511 309 ft 23 kts 358°
2026-05-05 14:17 35.04960 -89.98516 305 ft 6 kts 358°
2026-05-05 14:17 35.04962 -89.98517 305 ft 1 kts 355°
2026-05-05 14:18 35.04970 -89.98530 306 ft 3 kts 290°
2026-05-05 14:18 35.04964 -89.98567 306 ft 12 kts 255°
2026-05-05 14:18 35.04939 -89.98662 307 ft 12 kts 256°
2026-05-05 14:18 35.04864 -89.98739 308 ft 11 kts 177°
2026-05-05 14:19 35.04665 -89.98732 304 ft 62 kts 179°
2026-05-05 14:19 35.03984 -89.98719 308 ft 132 kts 179°
2026-05-05 14:19 35.03292 -89.98709 487 ft 158 kts 179°
2026-05-05 14:19 35.02095 -89.98657 897 ft 185 kts 178°
2026-05-05 14:20 35.00684 -89.98555 1382 ft 213 kts 179°
2026-05-05 14:20 34.99292 -89.98452 2097 ft 181 kts 182°
2026-05-05 14:20 34.98114 -89.98094 2523 ft 177 kts 167°
2026-05-05 14:20 34.96925 -89.97400 2829 ft 207 kts 161°
2026-05-05 14:21 34.95553 -89.96499 3202 ft 238 kts 158°
2026-05-05 14:21 34.94141 -89.95298 3898 ft 257 kts 143°
2026-05-05 14:21 34.93132 -89.93443 4842 ft 274 kts 117°
2026-05-05 14:21 34.92789 -89.91117 5760 ft 285 kts 99°
2026-05-05 14:22 34.92694 -89.88682 6689 ft 290 kts 97°
2026-05-05 14:22 34.92617 -89.86239 7579 ft 296 kts 96°
2026-05-05 14:22 34.92839 -89.83702 8418 ft 311 kts 75°
2026-05-05 14:22 34.93793 -89.81304 9418 ft 316 kts 60°
2026-05-05 14:23 34.94933 -89.78987 10310 ft 323 kts 59°
2026-05-05 14:23 34.96357 -89.76755 10719 ft 346 kts 40°
2026-05-05 14:23 34.98495 -89.75304 11036 ft 363 kts 13°
2026-05-05 14:23 35.01033 -89.75003 11489 ft 371 kts 352°
2026-05-05 14:24 35.03624 -89.75236 12272 ft 375 kts 350°
2026-05-05 14:24 35.06241 -89.75466 13137 ft 379 kts 351°
2026-05-05 14:24 35.08895 -89.75656 13971 ft 384 kts 351°
2026-05-05 14:24 35.11575 -89.75817 14769 ft 387 kts 352°
2026-05-05 14:25 35.14297 -89.75980 15636 ft 388 kts 351°
2026-05-05 14:25 35.16969 -89.76137 16505 ft 390 kts 351°
2026-05-05 14:25 35.19684 -89.76294 17354 ft 392 kts 351°
2026-05-05 14:25 35.22420 -89.76448 18204 ft 395 kts 351°
2026-05-05 14:26 35.25178 -89.76602 18949 ft 398 kts 350°
2026-05-05 14:26 35.27985 -89.76677 19530 ft 409 kts 355°
2026-05-05 14:26 35.30841 -89.76133 20249 ft 423 kts
2026-05-05 14:26 35.33586 -89.74708 21054 ft 435 kts 22°
2026-05-05 14:27 35.36216 -89.72831 21816 ft 440 kts 24°
2026-05-05 14:27 35.38839 -89.70885 22560 ft 443 kts 24°
2026-05-05 14:27 35.41490 -89.68922 23296 ft 446 kts 24°
2026-05-05 14:27 35.44157 -89.66954 23931 ft 449 kts 23°
2026-05-05 14:28 35.46849 -89.64972 24542 ft 452 kts 23°
2026-05-05 14:28 35.49553 -89.62982 25171 ft 455 kts 23°
2026-05-05 14:28 35.52280 -89.60976 25681 ft 461 kts 23°
2026-05-05 14:28 35.55029 -89.58956 26182 ft 466 kts 23°
2026-05-05 14:29 35.57792 -89.56920 26796 ft 468 kts 23°
2026-05-05 14:29 35.60583 -89.54861 27401 ft 470 kts 23°
2026-05-05 14:29 35.63398 -89.52777 27984 ft 474 kts 24°
2026-05-05 14:29 35.66225 -89.50645 28551 ft 477 kts 24°
2026-05-05 14:30 35.69063 -89.48515 29112 ft 480 kts 24°
2026-05-05 14:30 35.71920 -89.46383 29663 ft 483 kts 24°
2026-05-05 14:30 35.74811 -89.44225 30158 ft 486 kts 24°
2026-05-05 14:30 35.77719 -89.42055 30503 ft 492 kts 23°
2026-05-05 14:31 35.80669 -89.39853 30833 ft 497 kts 23°
2026-05-05 14:31 35.83624 -89.37642 31313 ft 499 kts 23°
2026-05-05 14:31 35.86598 -89.35414 31782 ft 500 kts 23°
2026-05-05 14:31 35.89578 -89.33180 32191 ft 502 kts 22°
2026-05-05 14:32 35.92572 -89.30935 32598 ft 504 kts 22°
2026-05-05 14:32 35.95579 -89.28678 32970 ft 506 kts 22°
2026-05-05 14:32 35.98592 -89.26415 33358 ft 507 kts 22°
2026-05-05 14:32 36.01597 -89.24152 33928 ft 504 kts 22°
2026-05-05 14:33 36.04581 -89.21903 34443 ft 502 kts 21°
2026-05-05 14:33 36.07559 -89.19658 34849 ft 501 kts 20°
2026-05-05 14:33 36.10533 -89.17416 35269 ft 500 kts 20°
2026-05-05 14:33 36.13499 -89.15177 35700 ft 498 kts 19°
2026-05-05 14:34 36.16456 -89.12944 36111 ft 497 kts 19°
2026-05-05 14:34 36.19400 -89.10718 36497 ft 495 kts 18°
2026-05-05 14:34 36.22330 -89.08501 36882 ft 494 kts 18°
2026-05-05 14:34 36.25255 -89.06286 37304 ft 493 kts 17°
2026-05-05 14:35 36.28192 -89.04064 37509 ft 496 kts 17°
2026-05-05 14:35 36.31146 -89.01826 37805 ft 496 kts 17°
2026-05-05 14:35 36.34077 -88.99598 38204 ft 494 kts 16°
2026-05-05 14:35 36.37002 -88.97375 38596 ft 491 kts 15°
2026-05-05 14:36 36.39906 -88.95173 38872 ft 490 kts 15°
2026-05-05 14:36 36.42821 -88.92961 39087 ft 491 kts 15°
2026-05-05 14:36 36.45735 -88.90749 39326 ft 491 kts 16°
2026-05-05 14:36 36.48649 -88.88535 39551 ft 491 kts 16°
2026-05-05 14:37 36.51561 -88.86320 39799 ft 491 kts 16°
2026-05-05 14:37 36.54473 -88.84101 40079 ft 490 kts 16°
2026-05-05 14:37 36.57374 -88.81886 40392 ft 488 kts 16°
2026-05-05 14:37 36.60269 -88.79673 40603 ft 488 kts 16°
2026-05-05 14:38 36.63165 -88.77463 40795 ft 488 kts 16°
2026-05-05 14:38 36.66061 -88.75254 40880 ft 490 kts 17°
2026-05-05 14:38 36.71838 -88.70835 40888 ft 489 kts 17°
2026-05-05 14:39 36.77637 -88.66388 40904 ft 490 kts 17°
2026-05-05 14:39 36.83437 -88.61932 40885 ft 490 kts 17°
2026-05-05 14:40 36.89241 -88.57466 40884 ft 490 kts 17°
2026-05-05 14:40 36.95092 -88.52955 40881 ft 490 kts 17°
2026-05-05 14:41 37.00854 -88.48505 40893 ft 491 kts 17°
2026-05-05 14:41 37.06671 -88.44005 40878 ft 491 kts 17°
2026-05-05 14:42 37.12500 -88.39481 40878 ft 489 kts 17°
2026-05-05 14:42 37.18294 -88.34980 40876 ft 489 kts 17°
2026-05-05 14:43 37.24043 -88.30511 40879 ft 490 kts 17°
2026-05-05 14:43 37.29856 -88.25987 40874 ft 492 kts 17°
2026-05-05 14:44 37.35673 -88.21446 40872 ft 493 kts 18°
2026-05-05 14:44 37.41491 -88.16877 40873 ft 493 kts 18°
2026-05-05 14:45 37.47311 -88.12300 40926 ft 493 kts 18°
2026-05-05 14:45 37.53165 -88.07699 40921 ft 496 kts 18°
2026-05-05 14:46 37.59007 -88.03088 40916 ft 494 kts 18°
2026-05-05 14:46 37.64831 -87.98483 40911 ft 493 kts 18°
2026-05-05 14:47 37.70648 -87.93882 40927 ft 494 kts 19°
2026-05-05 14:47 37.76442 -87.89295 40886 ft 496 kts 19°
2026-05-05 14:48 37.82326 -87.84623 40886 ft 497 kts 19°
2026-05-05 14:48 37.88215 -87.79934 40890 ft 497 kts 19°
2026-05-05 14:49 37.94029 -87.75311 40895 ft 495 kts 18°
2026-05-05 14:49 37.99938 -87.71149 40871 ft 491 kts 15°
2026-05-05 14:50 38.05983 -87.66942 40877 ft 491 kts 15°
2026-05-05 14:50 38.11952 -87.62736 40877 ft 490 kts 15°
2026-05-05 14:51 38.17910 -87.58519 40888 ft 490 kts 16°
2026-05-05 14:51 38.23905 -87.54267 40871 ft 493 kts 16°
2026-05-05 14:52 38.29899 -87.50000 40868 ft 494 kts 16°
2026-05-05 14:52 38.35907 -87.45715 40861 ft 494 kts 16°
2026-05-05 14:53 38.41902 -87.41432 40863 ft 494 kts 16°
2026-05-05 14:53 38.47903 -87.37135 40865 ft 494 kts 16°
2026-05-05 14:54 38.53900 -87.32835 40866 ft 495 kts 16°
2026-05-05 14:54 38.59892 -87.28526 40861 ft 493 kts 16°
2026-05-05 14:55 38.65859 -87.24231 40861 ft 492 kts 16°
2026-05-05 14:55 38.71838 -87.19919 40860 ft 493 kts 17°
2026-05-05 14:56 38.77810 -87.15603 40859 ft 493 kts 17°
2026-05-05 14:56 38.82782 -87.12003 40859 ft 493 kts 17°
2026-05-05 14:57 38.89730 -87.06964 40861 ft 494 kts 17°
2026-05-05 14:57 38.95720 -87.02610 40839 ft 495 kts 17°
2026-05-05 14:58 39.00739 -86.98953 40855 ft 495 kts 17°
2026-05-05 14:58 39.06729 -86.94583 40868 ft 495 kts 17°
2026-05-05 14:59 39.12726 -86.90197 40864 ft 494 kts 17°
2026-05-05 14:59 39.18663 -86.85849 40862 ft 495 kts 17°
2026-05-05 15:00 39.24639 -86.81463 40865 ft 495 kts 17°
2026-05-05 15:00 39.27624 -86.79266 40504 ft 492 kts 17°
2026-05-05 15:00 39.30595 -86.77077 39902 ft 491 kts 17°
2026-05-05 15:01 39.33567 -86.74892 39202 ft 493 kts 17°
2026-05-05 15:01 39.36558 -86.72691 38503 ft 495 kts 17°
2026-05-05 15:01 39.39552 -86.70484 37647 ft 497 kts 17°
2026-05-05 15:01 39.42575 -86.68258 36578 ft 504 kts 18°
2026-05-05 15:02 39.45646 -86.65996 35420 ft 514 kts 18°
2026-05-05 15:02 39.48786 -86.63680 34345 ft 524 kts 19°
2026-05-05 15:02 39.51985 -86.61313 33483 ft 533 kts 20°
2026-05-05 15:02 39.55222 -86.58911 33013 ft 541 kts 21°
2026-05-05 15:03 39.58507 -86.56468 32876 ft 546 kts 21°
2026-05-05 15:03 39.61799 -86.54014 32869 ft 547 kts 21°
2026-05-05 15:03 39.68383 -86.49099 32869 ft 545 kts 21°
2026-05-05 15:04 39.74954 -86.44192 32867 ft 544 kts 21°
2026-05-05 15:04 39.81529 -86.39275 32868 ft 546 kts 21°
2026-05-05 15:05 39.87993 -86.33978 32873 ft 558 kts 30°
2026-05-05 15:05 39.91012 -86.30764 32870 ft 561 kts 32°
2026-05-05 15:06 39.96979 -86.24207 32918 ft 561 kts 33°
2026-05-05 15:06 40.02935 -86.17659 32889 ft 560 kts 32°
2026-05-05 15:07 40.08889 -86.11132 32853 ft 557 kts 31°
2026-05-05 15:07 40.14903 -86.04794 32859 ft 556 kts 31°
2026-05-05 15:08 40.20919 -85.98441 32876 ft 556 kts 31°
2026-05-05 15:08 40.26891 -85.92102 32870 ft 556 kts 31°
2026-05-05 15:09 40.32891 -85.85714 32872 ft 556 kts 31°
2026-05-05 15:09 40.38886 -85.79314 32876 ft 556 kts 31°
2026-05-05 15:10 40.44898 -85.72882 32881 ft 559 kts 31°
2026-05-05 15:10 40.50932 -85.66411 32875 ft 561 kts 32°
2026-05-05 15:11 40.56975 -85.59911 32874 ft 561 kts 32°
2026-05-05 15:11 40.63011 -85.53403 32866 ft 561 kts 32°
2026-05-05 15:12 40.69050 -85.46869 32860 ft 562 kts 32°
2026-05-05 15:12 40.74917 -85.39989 32842 ft 564 kts 34°
2026-05-05 15:13 40.80748 -85.33085 32876 ft 561 kts 34°
2026-05-05 15:13 40.86559 -85.26179 32860 ft 568 kts 37°
2026-05-05 15:14 40.91848 -85.18374 32865 ft 575 kts 43°
2026-05-05 15:14 40.97062 -85.10326 32884 ft 575 kts 43°
2026-05-05 15:15 41.02267 -85.02296 32863 ft 575 kts 43°
2026-05-05 15:15 41.07473 -84.94257 32869 ft 575 kts 43°
2026-05-05 15:16 41.12678 -84.86199 32857 ft 575 kts 43°
2026-05-05 15:16 41.17896 -84.78159 32835 ft 573 kts 40°
2026-05-05 15:16 41.20625 -84.74411 32842 ft 556 kts 38°
2026-05-05 15:17 41.23310 -84.70825 32883 ft 540 kts 38°
2026-05-05 15:17 41.28563 -84.63758 32848 ft 538 kts 38°
2026-05-05 15:18 41.33795 -84.56637 32856 ft 538 kts 38°
2026-05-05 15:18 41.39024 -84.49489 32861 ft 538 kts 38°
2026-05-05 15:19 41.44234 -84.42329 32889 ft 538 kts 38°
2026-05-05 15:19 41.49446 -84.35124 32758 ft 541 kts 38°
2026-05-05 15:20 41.54651 -84.27841 32769 ft 541 kts 39°
2026-05-05 15:20 41.59784 -84.20525 32959 ft 538 kts 39°
2026-05-05 15:21 41.64850 -84.13155 32962 ft 540 kts 40°
2026-05-05 15:21 41.67384 -84.09421 32861 ft 544 kts 40°
2026-05-05 15:21 41.69929 -84.05636 32793 ft 548 kts 41°
2026-05-05 15:22 41.74984 -83.98042 32936 ft 546 kts 41°
2026-05-05 15:22 41.77486 -83.94230 33094 ft 544 kts 41°
2026-05-05 15:22 41.79930 -83.90461 33157 ft 543 kts 41°
2026-05-05 15:23 41.84842 -83.82743 33076 ft 546 kts 43°
2026-05-05 15:23 41.89748 -83.74811 32961 ft 550 kts 44°
2026-05-05 15:24 41.94529 -83.66829 33065 ft 548 kts 45°
2026-05-05 15:24 41.99203 -83.58727 33109 ft 549 kts 46°
2026-05-05 15:25 42.03782 -83.50478 33026 ft 551 kts 47°
2026-05-05 15:25 42.08260 -83.42226 33284 ft 547 kts 48°
2026-05-05 15:26 42.12665 -83.33906 33341 ft 547 kts 49°
2026-05-05 15:26 42.14852 -83.29690 33233 ft 549 kts 49°
2026-05-05 15:26 42.17028 -83.25433 33112 ft 552 kts 50°
2026-05-05 15:27 42.21321 -83.16830 33191 ft 551 kts 51°
2026-05-05 15:27 42.23410 -83.12513 33377 ft 547 kts 52°
2026-05-05 15:27 42.25436 -83.08210 33596 ft 543 kts 53°
2026-05-05 15:27 42.27427 -83.03856 33697 ft 542 kts 54°
2026-05-05 15:28 42.29366 -82.99491 33610 ft 545 kts 54°
2026-05-05 15:28 42.31282 -82.95044 33402 ft 550 kts 56°
2026-05-05 15:28 42.33168 -82.90522 33236 ft 554 kts 57°
2026-05-05 15:29 42.36802 -82.81344 33301 ft 552 kts 59°
2026-05-05 15:29 42.38530 -82.76725 33432 ft 549 kts 59°
2026-05-05 15:29 42.40201 -82.72091 33630 ft 546 kts 61°
2026-05-05 15:30 42.43389 -82.62798 33730 ft 544 kts 63°
2026-05-05 15:30 42.46415 -82.53331 33479 ft 551 kts 64°
2026-05-05 15:31 42.49255 -82.43716 33403 ft 554 kts 66°
2026-05-05 15:31 42.50601 -82.38833 33509 ft 552 kts 68°
2026-05-05 15:31 42.51877 -82.33951 33685 ft 548 kts 69°
2026-05-05 15:31 42.53091 -82.29055 33837 ft 545 kts 70°
2026-05-05 15:32 42.54239 -82.24160 33882 ft 545 kts 71°
2026-05-05 15:32 42.56379 -82.14255 33660 ft 551 kts 73°
2026-05-05 15:32 42.57375 -82.09232 33522 ft 553 kts 74°
2026-05-05 15:33 42.58316 -82.04170 33484 ft 554 kts 75°
2026-05-05 15:33 42.60013 -81.94007 33660 ft 549 kts 77°
2026-05-05 15:34 42.61453 -81.83847 33724 ft 548 kts 79°
2026-05-05 15:34 42.62660 -81.73588 33530 ft 552 kts 82°
2026-05-05 15:35 42.63642 -81.63232 33481 ft 552 kts 83°
2026-05-05 15:35 42.64038 -81.58062 33638 ft 548 kts 85°
2026-05-05 15:35 42.64365 -81.52929 33814 ft 543 kts 86°
2026-05-05 15:36 42.64833 -81.42702 33876 ft 542 kts 88°
2026-05-05 15:36 42.64984 -81.37568 33724 ft 546 kts 89°
2026-05-05 15:36 42.65082 -81.32398 33548 ft 549 kts 90°
2026-05-05 15:36 42.65123 -81.27197 33436 ft 551 kts 91°
2026-05-05 15:37 42.65114 -81.22002 33498 ft 549 kts 91°
2026-05-05 15:37 42.65065 -81.16839 33705 ft 544 kts 92°
2026-05-05 15:37 42.64974 -81.11721 33894 ft 539 kts 93°
2026-05-05 15:38 42.64664 -81.01569 33906 ft 539 kts 95°
2026-05-05 15:38 42.64443 -80.96464 33731 ft 543 kts 95°
2026-05-05 15:38 42.64178 -80.91323 33546 ft 547 kts 96°
2026-05-05 15:39 42.63489 -80.81033 33544 ft 544 kts 98°